Location: Navalmoral
(40.4603°N, 4.7686°W)
Time: 10:30:50
(UTC+00:00)

Cosmos 2221 - Pass Details

Date: 05 August 2024
Orbit: 579 x 600 km, 82.5° (Epoch: 18 September)

Event Time Altitude Azimuth Distance (km) Brightness Sun altitude
Rises 21:52:46 0° 359° (N) 2,857 6.7 -22.8°
Reaches altitude 10° 21:55:05 10° 7° (N) 1,952 5.7 -23.1°
Enters shadow 21:58:32 38° 55° (NE) 926 3.3 -23.5°
